Time,TemperatureF,DewpointF,PressureIn,WindDirection,WindDirectionDegrees,WindSpeedMPH,WindSpeedGustMPH,Humidity,HourlyPrecipIn,Conditions,Clouds,dailyrainin,SoftwareType,DateUTC
2014-01-30 00:12:00,17.0,9.0,30.35,SSE,151,0.0,1.0,69,0.00,,,0.00,,2014-01-30 06:12:00,
2014-01-30 00:22:00,17.0,8.0,30.35,SSE,151,0.0,1.0,68,0.00,,,0.00,,2014-01-30 06:22:00,
2014-01-30 00:43:00,17.0,8.0,30.35,SSE,151,0.0,0.0,68,0.00,,,0.00,,2014-01-30 06:43:00,
2014-01-30 00:52:00,17.0,8.0,30.35,SSE,151,0.0,1.0,68,0.00,,,0.00,,2014-01-30 06:52:00,
2014-01-30 01:11:00,17.0,9.0,30.34,SSE,151,0.0,2.0,69,0.00,,,0.00,,2014-01-30 07:11:00,
2014-01-30 01:22:00,17.0,8.0,30.34,SSE,155,0.0,1.0,68,0.00,,,0.00,,2014-01-30 07:22:00,
2014-01-30 01:42:00,17.0,8.0,30.34,SSE,155,0.0,2.0,67,0.00,,,0.00,,2014-01-30 07:42:00,
2014-01-30 01:52:00,16.0,7.0,30.34,SSE,155,0.0,0.0,67,0.00,,,0.00,,2014-01-30 07:52:00,
2014-01-30 02:12:00,16.0,7.0,30.34,SSE,155,0.0,0.0,66,0.00,,,0.00,,2014-01-30 08:12:00,
2014-01-30 02:22:00,15.0,7.0,30.34,SSE,155,0.0,0.0,69,0.00,,,0.00,,2014-01-30 08:22:00,
2014-01-30 02:42:00,15.0,7.0,30.33,SSE,155,0.0,1.0,69,0.00,,,0.00,,2014-01-30 08:42:00,
2014-01-30 02:52:00,16.0,8.0,30.32,SSE,155,0.0,2.0,70,0.00,,,0.00,,2014-01-30 08:52:00,
2014-01-30 03:11:00,17.0,9.0,30.33,SSE,156,0.0,2.0,69,0.00,,,0.00,,2014-01-30 09:11:00,
2014-01-30 03:22:00,17.0,9.0,30.32,SSE,157,0.0,2.0,69,0.00,,,0.00,,2014-01-30 09:22:00,
2014-01-30 03:43:00,17.0,9.0,30.31,SSE,157,0.0,2.0,69,0.00,,,0.00,,2014-01-30 09:43:00,
2014-01-30 03:53:00,17.0,9.0,30.30,SSE,166,1.0,3.0,69,0.00,,,0.00,,2014-01-30 09:53:00,
2014-01-30 04:12:00,17.0,9.0,30.30,South,180,1.0,4.0,69,0.00,,,0.00,,2014-01-30 10:12:00,
2014-01-30 04:24:00,17.0,9.0,30.30,South,178,1.0,4.0,69,0.00,,,0.00,,2014-01-30 10:24:00,
2014-01-30 04:43:00,17.0,9.0,30.29,South,178,0.0,3.0,69,0.00,,,0.00,,2014-01-30 10:43:00,
2014-01-30 04:53:00,16.0,8.0,30.29,South,178,0.0,1.0,70,0.00,,,0.00,,2014-01-30 10:53:00,
2014-01-30 05:11:00,16.0,8.0,30.29,South,178,0.0,3.0,71,0.00,,,0.00,,2014-01-30 11:11:00,
2014-01-30 05:22:00,16.0,8.0,30.29,South,178,0.0,3.0,71,0.00,,,0.00,,2014-01-30 11:22:00,
2014-01-30 05:42:00,16.0,8.0,30.30,South,178,0.0,3.0,71,0.00,,,0.00,,2014-01-30 11:42:00,
2014-01-30 05:52:00,16.0,8.0,30.31,South,178,0.0,2.0,71,0.00,,,0.00,,2014-01-30 11:52:00,
2014-01-30 06:12:00,16.0,9.0,30.30,South,178,0.0,2.0,72,0.00,,,0.00,,2014-01-30 12:12:00,
2014-01-30 06:22:00,16.0,9.0,30.29,South,178,0.0,4.0,72,0.00,,,0.00,,2014-01-30 12:22:00,
2014-01-30 06:42:00,16.0,9.0,30.29,South,178,1.0,3.0,73,0.00,,,0.00,,2014-01-30 12:42:00,
2014-01-30 06:52:00,16.0,9.0,30.28,South,178,1.0,3.0,73,0.00,,,0.00,,2014-01-30 12:52:00,
2014-01-30 07:12:00,16.0,9.0,30.27,South,179,1.0,4.0,72,0.00,,,0.00,,2014-01-30 13:12:00,
2014-01-30 07:21:00,17.0,10.0,30.27,South,176,1.0,4.0,72,0.00,,,0.00,,2014-01-30 13:21:00,
2014-01-30 07:42:00,17.0,10.0,30.29,South,191,2.0,4.0,72,0.00,,,0.00,,2014-01-30 13:42:00,
2014-01-30 07:52:00,18.0,10.0,30.31,SSW,205,0.0,5.0,71,0.00,,,0.00,,2014-01-30 13:52:00,
2014-01-30 08:12:00,19.0,11.0,30.31,South,170,1.0,4.0,70,0.00,,,0.00,,2014-01-30 14:12:00,
2014-01-30 08:22:00,21.0,11.0,30.29,SSW,196,3.0,7.0,66,0.00,,,0.00,,2014-01-30 14:22:00,
2014-01-30 08:42:00,23.0,11.0,30.29,WSW,238,4.0,8.0,60,0.00,,,0.00,,2014-01-30 14:42:00,
2014-01-30 08:52:00,23.0,11.0,30.29,SW,229,4.0,7.0,60,0.00,,,0.00,,2014-01-30 14:52:00,
2014-01-30 09:22:00,25.0,11.0,30.29,SW,232,4.0,8.0,55,0.00,,,0.00,,2014-01-30 15:22:00,
2014-01-30 09:44:00,26.0,11.0,30.27,SSE,168,4.0,7.0,53,0.00,,,0.00,,2014-01-30 15:44:00,
2014-01-30 09:53:00,27.0,12.0,30.24,SW,232,5.0,10.0,53,0.00,,,0.00,,2014-01-30 15:53:00,
2014-01-30 10:13:00,27.0,11.0,30.25,South,170,7.0,10.0,50,0.00,,,0.00,,2014-01-30 16:13:00,
2014-01-30 10:23:00,28.0,11.0,30.24,SSW,201,7.0,15.0,49,0.00,,,0.00,,2014-01-30 16:23:00,
2014-01-30 10:43:00,28.0,11.0,30.22,SW,224,6.0,13.0,48,0.00,,,0.00,,2014-01-30 16:43:00,
2014-01-30 10:53:00,31.0,11.0,30.22,SSW,212,8.0,15.0,42,0.00,,,0.00,,2014-01-30 16:53:00,
2014-01-30 11:12:00,31.0,10.0,30.20,SW,221,8.0,16.0,41,0.00,,,0.00,,2014-01-30 17:12:00,
2014-01-30 11:22:00,32.0,10.0,30.19,SSW,200,11.0,17.0,39,0.00,,,0.00,,2014-01-30 17:22:00,
2014-01-30 11:43:00,33.0,11.0,30.18,SSW,213,7.0,16.0,39,0.00,,,0.00,,2014-01-30 17:43:00,
2014-01-30 11:52:00,34.0,11.0,30.17,SW,232,6.0,16.0,38,0.00,,,0.00,,2014-01-30 17:52:00,
2014-01-30 12:12:00,35.0,11.0,30.15,SW,218,4.0,14.0,37,0.00,,,0.00,,2014-01-30 18:12:00,
2014-01-30 12:22:00,35.0,11.0,30.16,NW,306,3.0,13.0,37,0.00,,,0.00,,2014-01-30 18:22:00,
2014-01-30 12:52:00,35.0,11.0,30.13,South,175,10.0,17.0,37,0.00,,,0.00,,2014-01-30 18:52:00,
2014-01-30 13:11:00,35.0,11.0,30.11,South,171,7.0,15.0,37,0.00,,,0.00,,2014-01-30 19:11:00,
2014-01-30 13:22:00,37.0,13.0,30.11,South,187,9.0,16.0,36,0.00,,,0.00,,2014-01-30 19:22:00,
2014-01-30 13:42:00,38.0,13.0,30.09,SW,220,6.0,15.0,35,0.00,,,0.00,,2014-01-30 19:42:00,
2014-01-30 13:52:00,38.0,11.0,30.09,SSW,196,6.0,12.0,33,0.00,,,0.00,,2014-01-30 19:52:00,
2014-01-30 14:11:00,37.0,11.0,30.08,SW,219,5.0,14.0,33,0.00,,,0.00,,2014-01-30 20:11:00,
2014-01-30 14:22:00,37.0,11.0,30.07,West,263,3.0,16.0,33,0.00,,,0.00,,2014-01-30 20:22:00,
2014-01-30 14:42:00,38.0,11.0,30.07,SW,230,4.0,16.0,33,0.00,,,0.00,,2014-01-30 20:42:00,
2014-01-30 14:52:00,39.0,11.0,30.05,SW,229,6.0,15.0,31,0.00,,,0.00,,2014-01-30 20:52:00,
2014-01-30 15:11:00,38.0,10.0,30.04,WSW,248,7.0,14.0,31,0.00,,,0.00,,2014-01-30 21:11:00,
2014-01-30 15:22:00,39.0,10.0,30.05,SW,218,5.0,13.0,30,0.00,,,0.00,,2014-01-30 21:22:00,
2014-01-30 15:43:00,39.0,10.0,30.05,WSW,239,6.0,13.0,30,0.00,,,0.00,,2014-01-30 21:43:00,
2014-01-30 15:53:00,39.0,10.0,30.06,SW,214,6.0,11.0,30,0.00,,,0.00,,2014-01-30 21:53:00,
2014-01-30 16:13:00,39.0,11.0,30.06,SSW,201,3.0,9.0,31,0.00,,,0.00,,2014-01-30 22:13:00,
2014-01-30 16:23:00,39.0,11.0,30.05,SSW,213,3.0,10.0,31,0.00,,,0.00,,2014-01-30 22:23:00,
2014-01-30 16:43:00,39.0,10.0,30.06,SSW,194,6.0,12.0,30,0.00,,,0.00,,2014-01-30 22:43:00,
2014-01-30 16:53:00,39.0,10.0,30.05,SW,220,7.0,11.0,30,0.00,,,0.00,,2014-01-30 22:53:00,
2014-01-30 17:12:00,38.0,10.0,30.05,SSW,198,6.0,10.0,31,0.00,,,0.00,,2014-01-30 23:12:00,
2014-01-30 17:22:00,38.0,11.0,30.05,SSW,210,3.0,7.0,32,0.00,,,0.00,,2014-01-30 23:22:00,
2014-01-30 17:42:00,37.0,10.0,30.04,SW,225,4.0,7.0,32,0.00,,,0.00,,2014-01-30 23:42:00,
2014-01-30 17:53:00,37.0,11.0,30.05,SW,226,2.0,8.0,33,0.00,,,0.00,,2014-01-30 23:53:00,
2014-01-30 18:12:00,37.0,11.0,30.05,SSW,206,2.0,5.0,33,0.00,,,0.00,,2014-01-31 00:12:00,
2014-01-30 18:22:00,36.0,10.0,30.05,SW,224,2.0,5.0,33,0.00,,,0.00,,2014-01-31 00:22:00,
2014-01-30 18:42:00,36.0,10.0,30.06,SW,223,1.0,6.0,33,0.00,,,0.00,,2014-01-31 00:42:00,
2014-01-30 18:52:00,36.0,10.0,30.06,SW,219,2.0,6.0,34,0.00,,,0.00,,2014-01-31 00:52:00,
2014-01-30 19:11:00,35.0,10.0,30.06,SSW,208,0.0,3.0,35,0.00,,,0.00,,2014-01-31 01:11:00,
2014-01-30 19:22:00,34.0,10.0,30.07,SSW,208,0.0,1.0,36,0.00,,,0.00,,2014-01-31 01:22:00,
2014-01-30 19:42:00,33.0,11.0,30.07,SSW,208,0.0,3.0,39,0.00,,,0.00,,2014-01-31 01:42:00,
2014-01-30 19:52:00,32.0,10.0,30.08,SSW,208,0.0,1.0,40,0.00,,,0.00,,2014-01-31 01:52:00,
2014-01-30 20:11:00,31.0,11.0,30.09,SSW,208,0.0,1.0,42,0.00,,,0.00,,2014-01-31 02:11:00,
2014-01-30 20:22:00,31.0,11.0,30.08,SSW,208,1.0,2.0,43,0.00,,,0.00,,2014-01-31 02:22:00,
2014-01-30 20:42:00,30.0,11.0,30.09,SSW,208,0.0,0.0,44,0.00,,,0.00,,2014-01-31 02:42:00,
2014-01-30 20:52:00,30.0,11.0,30.09,SSW,208,0.0,0.0,44,0.00,,,0.00,,2014-01-31 02:52:00,
2014-01-30 21:12:00,30.0,11.0,30.09,SSW,208,0.0,0.0,45,0.00,,,0.00,,2014-01-31 03:12:00,
2014-01-30 21:22:00,29.0,11.0,30.10,SSW,208,0.0,0.0,46,0.00,,,0.00,,2014-01-31 03:22:00,
2014-01-30 21:43:00,29.0,11.0,30.11,SSW,208,0.0,1.0,46,0.00,,,0.00,,2014-01-31 03:43:00,
2014-01-30 21:53:00,30.0,11.0,30.11,SSW,208,0.0,2.0,44,0.00,,,0.00,,2014-01-31 03:53:00,
2014-01-30 22:13:00,31.0,11.0,30.11,SSW,208,0.0,1.0,43,0.00,,,0.00,,2014-01-31 04:13:00,
2014-01-30 22:23:00,31.0,11.0,30.11,SSW,208,1.0,3.0,43,0.00,,,0.00,,2014-01-31 04:23:00,
2014-01-30 22:43:00,32.0,12.0,30.11,SSW,205,0.0,1.0,43,0.00,,,0.00,,2014-01-31 04:43:00,
2014-01-30 22:53:00,32.0,11.0,30.11,SSW,205,0.0,1.0,41,0.00,,,0.00,,2014-01-31 04:53:00,
2014-01-30 23:12:00,32.0,12.0,30.11,SSW,205,0.0,0.0,42,0.00,,,0.00,,2014-01-31 05:12:00,
2014-01-30 23:23:00,31.0,11.0,30.11,SSW,205,0.0,0.0,42,0.00,,,0.00,,2014-01-31 05:23:00,
2014-01-30 23:43:00,31.0,12.0,30.11,SSW,205,0.0,1.0,44,0.00,,,0.00,,2014-01-31 05:43:00,
2014-01-30 23:53:00,31.0,12.0,30.11,SSW,205,0.0,0.0,44,0.00,,,0.00,,2014-01-31 05:53:00,